Wind_Speed
27 33 33 37 36 37 34 31 27 25 24 22 18 12 10 9 10 12 15 14 12 6 4 3 4 4 5 9 7 8 14 12
27 32 36 33 41 40 37 33 29 27 24 18 12 12 12 12 10 13 13 14 10 7 7 5 5 4 7 7 9 14 16 15
16 26 31 36 40 38 36 31 29 25 20 16 13 16 14 12 13 13 14 11 9 7 6 2 2 6 5 8 12 15 14 15
12 18 31 31 30 34 33 31 28 23 17 14 13 13 17 16 15 14 16 14 9 6 5 4 1 2 5 10 12 14 19 20
13 16 26 31 29 33 31 30 27 22 20 22 21 23 23 21 19 19 19 13 11 7 6 6 8 5 5 6 9 12 16 18
16 16 26 31 36 33 31 28 22 23 25 25 24 23 22 25 23 22 19 15 11 7 7 5 5 1 5 10 14 17 19 21
15 24 29 34 36 34 30 27 24 24 29 27 25 20 20 22 25 24 18 14 12 10 8 4 1 6 9 12 15 16 18 20
11 14 19 23 28 31 29 29 27 31 27 26 19 21 21 22 24 21 16 15 11 4 1 4 7 10 13 15 16 17 19 20
14 15 19 22 27 27 27 28 31 32 25 22 19 19 19 17 13 14 12 6 2 2 4 8 11 14 14 16 16 14 10 12
11 14 21 24 28 28 26 29 33 30 24 21 21 19 16 13 13 12 10 5 5 4 5 8 11 11 12 10 8 10 14 12
8 12 22 26 26 23 18 19 28 26 24 25 24 20 14 14 11 4 4 9 9 6 7 8 8 9 7 8 11 11 9 7
8 11 24 29 26 23 20 16 25 25 26 22 19 15 15 12 5 5 11 7 6 5 6 8 9 9 11 13 15 11 11 13
10 16 23 27 31 30 28 22 27 26 24 19 17 16 11 7 8 10 10 13 8 5 6 8 9 9 8 10 12 11 9 7
11 13 20 24 27 29 29 26 28 25 23 19 13 12 8 10 10 11 14 9 6 5 8 10 12 11 8 13 11 11 6 4
14 13 18 24 25 27 31 30 30 25 20 15 11 12 13 5 10 11 8 5 5 8 10 12 15 14 10 11 10 10 8 8
9 10 8 19 22 22 24 30 29 26 19 12 11 14 8 10 1 9 6 7 9 13 13 13 12 9 8 11 12 10 10 9
7 10 13 17 22 25 28 30 28 20 14 10 17 16 6 9 12 5 6 12 12 10 9 12 14 12 11 13 12 12 10 9
6 7 11 19 24 29 29 29 22 17 19 18 12 5 5 2 2 6 10 14 14 14 12 15 18 16 14 14 14 13 11 9
7 6 9 20 26 27 28 26 27 23 19 15 10 9 2 2 3 11 12 12 13 14 14 15 15 14 13 15 15 12 11 10
Wind_Direction
152 152 151 150 150 161 161 162 160 164 166 169 169 173 167 160 144 140 138 130 119 111 104 112 122 87 46 10 360 359 347 334
160 160 149 145 158 163 166 166 170 169 168 169 175 185 171 166 158 148 135 127 130 122 137 129 117 68 24 10 6 347 340 338
154 151 149 150 160 165 170 174 172 176 180 181 194 188 174 169 155 142 137 147 154 179 192 190 313 339 2 348 344 335 331 337
159 141 149 152 159 167 176 177 180 183 188 187 170 161 155 160 159 157 164 170 175 182 174 178 319 307 318 331 334 333 325 329
166 157 151 156 163 170 174 177 182 188 188 181 177 170 170 180 176 175 178 177 177 195 222 273 304 297 330 343 330 331 332 329
170 163 142 160 159 170 184 188 191 185 192 189 182 185 185 183 184 178 184 187 200 216 236 231 173 77 335 327 326 326 321 313
167 166 149 158 170 175 182 187 190 194 186 190 186 191 176 178 183 174 182 201 191 165 162 178 305 326 330 325 319 315 316 313
146 148 155 155 163 176 183 193 199 185 184 184 180 166 160 150 163 166 152 133 115 99 302 321 329 326 319 315 317 321 320 314
153 157 160 161 173 181 189 190 176 178 173 169 169 160 155 155 154 147 121 115 96 255 306 319 314 313 315 319 321 325 347 342
149 156 154 162 174 181 189 169 172 176 175 175 165 164 165 169 155 159 163 174 198 245 300 309 313 313 318 314 327 325 327 335
150 147 151 159 158 166 173 169 175 176 179 176 165 161 166 158 156 156 274 227 198 236 288 300 305 303 289 312 333 335 334 346
166 156 160 164 165 173 188 201 176 172 169 161 163 162 163 168 187 168 184 213 249 250 284 294 299 285 287 307 326 317 310 322
171 166 168 170 175 182 190 181 175 166 164 157 160 161 165 159 171 198 231 223 225 264 286 294 290 271 283 308 313 314 301 312
177 170 171 172 175 175 177 170 168 161 162 161 166 181 189 196 175 247 198 201 218 269 284 285 283 265 274 313 300 281 280 307
184 181 183 179 170 165 166 162 165 163 160 166 184 191 201 217 228 180 201 219 272 285 282 286 284 262 270 304 290 224 227 268
189 177 142 144 155 156 153 153 157 159 158 168 189 215 199 156 141 290 246 286 287 298 290 285 285 263 274 274 260 251 267 294
103 126 141 151 148 153 155 153 149 151 149 159 132 130 111 356 308 246 298 297 290 281 284 296 301 271 266 275 271 263 271 298
84 132 154 159 155 155 150 150 149 149 132 119 119 119 33 220 266 301 301 291 281 281 285 298 295 269 281 284 269 261 268 291
62 104 115 144 147 142 143 147 136 122 116 113 95 70 30 245 352 283 292 302 297 279 285 290 284 266 272 278 260 255 271 283
Height
791 796 802 809 815 819 824 830 834 838 839 842 844 847 849 852 852 852 854 855 856 860 864 867 866 866 866 866 867 867 866 865
787 792 800 807 811 814 820 826 831 834 837 840 842 845 847 850 852 853 853 854 858 861 865 866 865 865 865 865 866 865 864 863
787 791 798 803 808 813 819 824 827 831 835 838 842 843 846 848 850 852 852 855 859 861 863 863 863 863 864 864 864 864 863 862
785 790 797 803 808 812 817 821 826 829 834 838 841 842 845 848 850 850 852 855 857 860 861 861 861 862 863 863 863 862 860 860
782 786 794 800 807 813 818 820 824 827 832 835 837 838 841 843 845 848 851 855 858 859 859 859 860 861 861 861 861 860 859 857
779 784 789 796 803 810 815 818 822 825 829 832 834 836 837 839 843 847 850 852 855 857 857 857 858 859 859 858 858 857 856 854
776 781 787 793 797 805 811 816 819 823 826 829 831 833 835 837 840 845 848 851 851 852 854 855 856 857 856 855 854 854 853 852
776 780 785 791 796 800 805 812 816 820 824 827 829 831 834 836 840 843 846 849 849 853 854 853 852 852 853 853 852 852 852 850
773 777 782 786 791 797 802 808 812 817 821 824 827 829 833 836 838 839 842 846 848 850 850 850 851 852 852 852 851 850 848 847
772 776 779 785 790 795 800 804 809 814 818 821 824 827 830 833 836 838 839 841 844 847 848 849 850 852 851 849 848 847 846 845
772 775 779 785 789 795 800 805 809 813 815 818 821 825 829 832 836 840 842 843 841 842 845 848 849 850 848 846 845 844 842 841
772 775 778 783 788 794 799 804 808 811 814 818 822 825 828 832 833 837 839 845 846 844 844 845 846 846 844 843 843 842 840 839
767 771 776 780 785 790 796 802 805 809 813 817 822 825 828 831 835 838 840 841 842 843 844 844 844 842 840 839 839 838 837 836
761 766 770 775 780 785 791 798 803 807 811 816 821 825 829 832 834 838 839 838 840 839 841 841 840 838 837 836 835 836 835 835
754 758 762 767 773 780 783 789 797 805 810 814 820 824 829 831 835 837 837 837 838 838 837 837 836 834 833 833 831 830 830 829
751 754 761 768 774 781 786 790 796 802 807 813 817 823 828 832 834 838 837 837 838 837 835 833 832 831 831 830 830 829 828 827
752 755 759 766 772 779 784 789 793 801 807 813 817 823 828 829 836 837 836 837 836 835 834 832 830 828 827 826 826 826 826 824
755 759 761 766 770 775 781 789 795 801 806 811 815 819 824 830 832 832 835 834 832 830 829 828 826 824 825 823 821 820 820 819
759 760 763 767 771 778 783 790 796 801 806 810 815 821 824 827 829 831 830 829 828 826 824 822 821 820 819 819 818 817 817 817